Location: Center Berlin
(42.6609°N, 73.3687°W)
Time: 20:25:51
(UTC+00:00)

CBERS 1 LM4 rocket - Pass Details

Date: 10 September 2024
Orbit: 698 x 835 km, 98.8° (Epoch: 13 October)

Event Time Altitude Azimuth Distance (km) Brightness Sun altitude
Rises 23:39:12 0° 162° (SSE) 3,127 7.4 -5.9°
Reaches altitude 10° 23:41:25 10° 161° (SSE) 2,227 6.6 -6.3°
Maximum altitude 23:46:19 82° 75° (ENE) 766 4.5 -7.2°
Drops below altitude 10° 23:51:27 10° 348° (NNW) 2,332 7.4 -8.1°
Sets 23:53:49 0° 348° (NNW) 3,285 8.2 -8.5°
